THORAD AGENA D DEB, 13518

Orbit data source: Space-Track

THORAD AGENA D DEB, 13518 is space debris in SSO originally from a launch on Wed, 08 Apr 1970 UTC launched from the Air Force Western Test Range (AFWTR). Debris objects in space refer to the collection of defunct objects orbiting the Earth. Examples of debris include non-operational satellites, rocket bodies, and fragments generated from explosions, collisions, or faulty payload assembly.

Loading next visibility...
Identifier
13518, 1970-025NR
Orbit
SSO
Country
Flag of USUS
Related business
Manufacturer
Unknown
Mission
Spacecraft
Bus & Motor
Unknown
Mass
Unknown
Launch date (UTC)
1970-04-08 (56 years ago)
Launch vehicle
Unknown
Launch site
Air Force Western Test Range (AFWTR)
Object type
Payload
Rocket body
Debris
Shape & HBR
Unknown shape, 0.1 m
Radar Cross Section
Medium (>0.1 m² and <1 m²)

Expand to show TLE details & history
Last TLE update: 1 day ago

TLE from 1 day ago
0 THORAD AGENA D DEB
1 13518U 70025NR  26236.91434708  .00001085  00000-0  93674-3 0  9993
2 13518 100.0542  37.6383 0001987 315.5424 198.7537 13.89046346259898
Epoch: 2026-08-24T21:56Z
TLE epoch observation values (Epoch: 2026-08-24T21:56:39.587Z)
Latitude
25.31952°
Longitude
-79.92917°
Altitude
936.335 km
Speed
7.385 km/s
True Right ascension
14h 49m 41s
True Declination
25° 11' 24"
Sunlit
Object was in daylight at epoch
Visualization orbit readout
Latitude
Unknown
Longitude
Unknown
Altitude
Unknown
Speed
Unknown
Apparent Right ascension
Unknown
Apparent Declination
Unknown
Sunlit
N/A
Visualization observer readout
Local Sidereal Time
19:23:01
Azimuth
Unknown
Elevation
Unknown
Doppler factor
Unknown
Orbital elements
Apogee altitude
930.695 km
Perigee altitude
927.791 km
Semi-major axis
7,307.38 km
Eccentricity
0.0002
Inclination
100.0542°
RAAN
37.6383°
Arg. of periapsis
315.5424°
True anomaly
198.74638°
Mean anomaly
198.7537°
Eccentric anomaly
198.75004°
Mean motion
3.47457 °/min
Orbital period
103.61 mins
BSTAR
0.00093674
Loading maneuver chart data...
Computing Atmospheric mass density...

Documentation

Showing up to 5 results
|